Lapse_Rate
6.6 6.6 7.1 7.3 7.3 7.4 7.6 7.9 7.9 7.8 7.3 7.3 7.4 7.3 7.0 7.0 6.4 6.3 6.1 6.5 6.5 6.4 6.0 6.0 6.7 7.0 6.9 6.8 6.7 6.6 6.4 6.1 6.2 6.4 6.5 6.5 6.4 6.3 6.4 6.4 6.4 6.4 6.4 6.5
6.8 7.0 7.0 7.0 7.0 7.3 7.5 8.0 8.3 7.7 7.6 7.5 7.5 7.5 7.3 7.0 6.7 6.7 6.6 6.4 6.4 6.7 6.7 7.1 7.2 7.4 7.3 7.4 7.2 7.1 6.9 7.0 6.9 6.9 6.8 6.8 6.7 6.7 6.7 6.7 6.8 6.6 6.6 6.4
6.5 7.0 7.4 7.1 7.4 7.6 8.1 8.3 8.2 8.5 7.6 7.5 7.6 7.8 7.6 7.3 7.1 7.0 7.0 7.0 7.1 7.2 7.4 7.8 7.7 7.7 7.9 8.1 8.2 8.1 7.9 7.8 7.5 7.2 7.1 7.0 6.9 6.9 6.9 7.0 6.9 6.8 6.6 6.5
6.9 7.2 7.2 7.3 7.7 7.9 9.1 8.0 8.0 8.0 8.2 9.2 8.0 8.8 8.0 8.1 7.6 7.4 7.6 7.8 7.8 8.1 8.2 8.3 8.2 8.3 8.2 8.3 8.5 8.5 8.4 8.2 8.1 7.9 7.8 7.8 7.7 7.8 7.5 7.4 7.4 7.2 7.0 6.9
7.3 7.4 7.4 7.6 8.1 7.9 8.2 8.4 8.2 8.3 8.5 8.9 8.4 9.4 8.5 8.2 8.2 8.2 8.2 8.0 8.1 8.4 8.6 8.6 8.4 8.3 8.3 8.4 8.5 8.4 8.3 8.1 8.4 8.4 8.3 8.3 8.3 8.2 8.0 7.9 7.6 7.4 7.2 7.3
7.1 7.4 7.7 7.8 7.7 7.8 8.1 8.0 8.1 8.4 9.0 9.6 8.6 9.0 9.3 8.4 8.5 8.5 8.8 8.6 8.5 8.5 8.7 8.7 8.4 8.3 8.3 8.3 8.4 8.3 8.4 8.2 8.1 7.9 8.0 7.9 7.9 7.8 7.4 7.4 7.3 7.4 7.2 7.1
7.7 8.0 7.8 7.9 8.0 7.9 8.1 8.5 9.4 9.6 9.5 9.7 8.5 8.9 9.1 8.2 8.2 8.4 8.6 8.5 8.5 8.4 8.6 8.7 8.9 8.8 8.7 8.6 8.5 8.4 8.4 8.3 8.1 8.0 8.0 7.9 7.6 7.5 7.6 7.8 7.6 7.5 7.3 7.0
8.3 8.8 8.4 8.2 8.2 8.9 8.3 9.0 9.3 9.4 9.8 9.6 8.3 9.5 9.1 8.5 8.6 8.6 8.6 8.8 8.9 8.9 9.0 9.1 9.2 9.2 9.2 9.0 9.0 9.0 9.0 8.8 8.7 8.4 8.3 8.2 8.3 8.4 8.3 8.2 8.0 7.6 7.2 7.1
7.2 6.6 8.2 8.4 8.3 8.6 8.7 8.6 9.1 9.6 9.1 9.6 9.5 8.9 8.3 8.6 8.8 8.8 8.9 9.1 9.2 9.2 9.2 9.3 9.4 9.3 9.1 9.0 9.0 9.0 9.0 9.0 8.9 8.6 8.7 8.7 8.5 8.3 8.0 7.7 7.5 7.2 6.8 6.7
7.8 8.2 8.4 8.2 8.4 8.6 8.5 9.1 9.3 9.4 9.5 9.5 9.6 9.5 9.5 8.5 8.5 8.8 9.0 9.1 9.1 9.2 9.0 8.8 8.8 8.8 8.8 8.8 8.8 8.9 8.9 8.8 8.6 8.6 8.3 8.0 7.6 7.3 7.1 6.7 6.4 6.4 6.4 6.3
7.7 8.0 8.2 8.2 8.4 8.9 8.6 8.9 9.2 9.5 9.4 9.8 9.8 9.7 9.1 8.5 8.9 9.0 9.1 9.0 8.9 8.6 8.5 8.7 8.7 8.6 8.6 8.4 8.3 8.3 8.1 8.0 7.8 7.6 7.3 7.1 7.0 6.8 6.5 6.2 5.9 5.9 5.9 6.0
7.5 7.5 7.2 8.6 8.6 8.7 8.9 9.6 9.6 9.7 9.3 9.5 9.5 9.3 9.1 9.0 8.9 8.9 8.9 8.9 8.7 8.4 8.4 8.6 8.5 8.3 8.1 8.0 7.9 7.8 7.9 7.8 7.7 7.6 7.4 7.0 6.8 6.6 6.4 6.2 6.2 6.1 6.0 5.8
7.5 8.2 8.8 9.1 8.6 8.7 8.9 9.1 9.4 9.6 9.6 9.6 9.8 9.0 9.2 9.1 9.1 8.7 8.2 8.1 8.1 8.1 8.2 8.3 8.2 7.9 7.7 7.7 7.8 7.8 7.8 7.4 7.0 6.6 6.4 6.2 5.9 5.7 5.7 5.6 5.5 5.5 5.6 5.8
7.1 7.9 8.1 8.3 9.3 9.2 8.8 9.2 9.1 9.5 9.7 9.6 9.6 8.8 9.2 9.1 8.9 8.3 7.8 7.6 7.7 7.9 8.1 7.8 7.7 7.7 7.7 7.7 7.8 7.7 7.3 6.9 6.6 6.4 6.2 6.0 5.9 5.8 5.7 5.7 5.7 5.7 5.8 5.8
7.3 7.6 7.3 8.3 8.5 8.7 8.8 9.1 9.2 9.3 9.6 9.6 9.6 9.5 8.5 8.7 7.8 7.3 7.5 7.4 7.6 7.7 7.5 7.7 7.6 7.5 7.5 7.5 7.4 7.1 6.8 6.6 6.4 6.1 6.0 6.1 6.0 6.0 5.9 6.0 6.0 5.9 5.9 5.9
7.4 7.8 7.7 8.7 8.5 8.7 9.0 9.1 8.8 8.8 8.9 8.9 8.9 8.8 8.0 8.4 7.7 7.4 7.3 7.4 7.4 7.4 7.6 7.5 7.3 7.2 7.1 7.0 6.9 6.6 6.4 6.1 5.9 6.0 6.0 6.0 5.9 6.0 6.1 6.0 6.0 5.8 5.5 5.8
7.6 7.7 8.0 8.5 8.1 8.7 9.3 9.1 8.9 8.9 9.2 9.1 9.2 8.6 8.7 8.6 8.2 7.7 7.4 7.4 7.4 7.4 7.2 7.0 7.0 6.9 6.7 6.5 6.4 6.2 5.9 5.8 5.8 5.8 5.8 5.8 5.7 5.9 6.1 5.9 5.8 5.7 5.6 5.9
7.6 7.8 7.8 8.8 8.3 8.9 9.1 9.2 9.3 9.1 9.0 8.9 8.6 8.4 8.4 8.3 7.9 7.5 7.5 7.3 7.3 7.2 7.0 7.0 6.8 6.4 6.2 5.9 5.8 5.7 5.5 5.5 5.6 5.8 5.6 5.4 5.6 5.8 5.9 5.8 5.9 5.9 6.0 6.1
8.2 8.2 7.2 7.2 7.4 8.5 8.7 9.1 9.2 9.2 8.4 8.5 8.5 8.3 8.1 8.0 7.9 7.4 7.4 7.4 7.2 7.0 6.8 6.6 6.4 6.0 5.8 5.6 5.5 5.5 5.4 5.5 5.6 5.6 5.3 5.3 5.6 5.8 5.8 5.9 5.9 5.7 6.0 6.2
8.4 8.1 8.1 6.8 7.4 9.4 9.2 9.2 9.1 8.8 8.9 8.4 8.4 8.4 8.3 7.6 7.2 7.0 7.2 7.0 6.9 6.8 6.5 6.3 5.8 5.4 5.5 5.5 5.4 5.4 5.4 5.4 5.4 5.4 5.3 5.4 5.6 5.7 5.8 5.7 5.7 5.8 5.9 6.0
8.1 8.1 8.2 8.9 8.9 9.0 9.1 8.8 8.9 8.7 8.6 8.3 8.3 8.1 8.0 7.4 7.5 7.3 6.9 6.7 6.6 6.3 6.1 5.8 5.6 5.5 5.6 5.5 5.4 5.4 5.4 5.5 5.4 5.3 5.3 5.4 5.6 5.6 5.6 5.7 5.7 5.9 6.1 6.2
8.5 8.4 8.7 8.9 9.2 8.9 8.9 8.7 8.5 8.4 8.3 8.2 8.2 8.0 7.8 7.5 7.3 7.0 6.8 6.5 6.2 5.9 5.8 5.7 5.5 5.4 5.1 5.2 5.4 5.5 5.5 5.5 5.4 5.4 5.5 5.5 5.5 5.5 5.6 5.7 5.9 6.0 6.0 6.2
8.7 8.6 8.7 8.9 8.3 8.9 8.8 8.5 8.3 8.0 8.0 7.8 7.5 7.4 7.4 7.1 6.9 6.7 6.4 6.2 6.1 6.0 5.8 5.5 5.3 5.1 5.3 5.4 5.5 5.5 5.5 5.6 5.6 5.6 5.6 5.6 5.5 5.6 5.8 6.0 6.2 6.2 6.1 6.1
8.3 8.5 8.4 8.6 8.5 8.3 8.1 8.0 8.0 7.8 7.8 7.5 7.2 7.1 6.9 6.7 6.6 6.4 6.3 6.2 5.9 5.6 5.4 5.3 5.3 5.4 5.4 5.5 5.5 5.5 5.6 5.5 5.5 5.5 5.5 5.5 5.7 5.9 6.1 6.2 6.2 6.3 6.3 6.2
8.1 8.4 8.3 8.2 8.2 8.0 8.0 8.0 7.9 7.8 7.7 7.4 7.2 6.9 6.7 6.6 6.4 6.2 6.1 5.9 5.6 5.4 5.3 5.4 5.4 5.4 5.4 5.4 5.5 5.5 5.4 5.5 5.5 5.4 5.5 5.7 5.9 6.2 6.3 6.3 6.2 6.4 6.1 6.0
8.6 8.3 8.5 8.6 8.1 8.0 7.9 7.8 7.9 7.5 7.2 7.0 6.7 6.5 6.3 6.1 6.0 5.9 6.0 5.8 5.5 5.5 5.5 5.3 5.2 5.2 5.3 5.4 5.4 5.4 5.4 5.4 5.5 5.6 5.7 6.0 6.2 6.3 6.2 6.3 6.4 6.1 6.0 5.7
Wind_Speed
2 5 7 1 2 2 3 4 3 2 3 4 1 2 10 11 11 10 11 12 12 12 13 14 15 15 14 13 13 13 14 13 10 10 10 10 11 10 10 10 17 16 17 17
5 8 1 5 7 4 3 3 4 4 2 6 4 6 7 12 12 11 10 11 13 14 13 14 15 15 15 16 15 15 15 14 13 11 10 10 9 10 10 10 13 19 20 20
9 3 4 4 6 7 7 4 2 0 5 3 4 8 9 11 9 8 10 9 11 13 14 15 15 15 15 16 16 16 17 16 15 15 10 9 10 10 10 11 12 14 20 21
7 4 7 11 8 7 7 0 4 7 9 6 8 8 9 14 12 11 10 11 12 13 14 13 13 15 16 15 15 15 15 15 14 15 13 14 12 12 12 11 11 11 16 17
3 4 8 9 3 3 7 2 8 8 5 8 6 4 14 8 9 12 13 12 13 12 13 13 13 13 13 12 14 14 14 15 16 15 16 13 15 13 12 11 11 10 10 14
12 7 7 5 2 4 3 7 6 6 5 3 5 8 10 13 9 13 12 12 11 9 9 8 8 8 10 10 11 11 12 13 13 14 15 16 15 14 12 11 11 11 11 11
8 12 7 7 7 6 10 9 7 7 7 8 4 6 12 10 4 3 3 3 3 7 8 8 7 6 6 7 8 8 9 9 10 12 13 14 15 15 16 14 13 14 12 12
5 11 12 10 10 2 15 14 5 4 3 10 5 4 8 7 6 5 5 4 4 6 8 8 8 7 7 5 3 1 3 4 5 6 9 10 12 11 11 12 12 12 13 12
9 14 4 4 7 8 10 8 6 6 1 6 6 6 8 9 9 10 11 11 12 13 14 15 15 14 14 13 12 11 10 8 7 5 4 5 8 10 11 13 12 11 11 11
2 3 3 5 6 3 8 2 6 6 2 3 6 2 8 11 10 11 12 14 14 15 16 16 16 15 14 15 14 14 14 12 10 9 7 6 6 7 7 7 9 10 11 12
6 7 5 5 11 10 6 9 4 3 5 3 5 4 9 8 9 12 13 13 13 14 14 14 14 13 14 13 13 13 12 11 10 9 8 8 8 8 7 7 9 10 11 12
10 6 1 20 6 3 8 9 9 7 9 4 7 5 5 7 11 13 14 13 13 13 13 13 13 13 12 12 11 10 9 9 8 7 7 8 8 8 9 10 10 11 11 12
5 9 11 10 4 5 10 9 9 4 3 5 8 7 8 10 12 12 14 13 12 13 13 13 11 11 10 10 9 9 9 9 8 8 8 9 10 10 11 12 12 12 12 13
6 7 12 10 5 4 8 10 11 11 7 8 10 12 11 12 13 13 13 12 12 11 11 11 10 9 8 8 8 8 7 7 7 8 9 11 12 12 12 13 13 14 13 14
8 7 18 10 3 2 4 10 11 10 4 7 8 4 13 12 12 13 12 11 10 10 9 8 8 6 6 6 6 7 7 7 9 9 11 12 13 14 15 15 15 15 14 14
7 9 7 2 3 4 6 5 6 4 1 1 3 6 11 12 11 10 10 10 9 8 7 7 5 4 5 6 7 8 8 9 10 12 13 13 14 14 15 15 15 15 16 15
11 8 10 6 9 4 9 7 5 4 2 2 4 8 12 13 13 12 10 7 7 7 6 3 3 4 5 6 6 9 9 11 12 13 13 14 14 15 16 15 16 16 15 15
13 5 7 6 3 3 4 0 1 1 1 2 4 10 12 12 10 8 6 6 6 5 3 1 3 4 5 7 9 10 12 12 13 13 13 13 14 15 15 15 15 15 15 15
16 9 5 1 2 10 9 5 7 9 8 5 6 10 11 10 9 7 6 4 4 3 1 2 3 4 6 8 9 11 12 12 12 13 14 14 15 16 16 16 15 16 15 15
13 14 13 13 19 15 5 9 4 3 7 7 11 13 14 12 8 6 9 7 5 3 1 3 4 5 7 9 11 12 12 11 12 13 14 14 14 15 15 12 12 12 12 13
14 13 15 11 10 5 5 7 5 6 4 9 11 12 12 8 5 10 10 6 4 2 2 2 4 6 8 9 11 12 12 12 13 14 14 13 13 12 13 14 13 13 12 11
8 11 10 9 12 6 7 8 3 5 7 9 11 10 9 7 8 8 8 6 4 3 2 4 6 8 8 10 11 11 12 12 13 12 12 11 10 12 10 12 13 11 10 12
3 2 3 5 5 3 4 5 4 6 10 10 10 10 8 8 7 7 6 5 3 2 2 5 7 8 9 11 11 11 12 12 13 13 13 10 12 12 12 13 14 12 13 12
2 2 1 3 4 4 4 5 7 10 11 11 10 9 7 5 5 5 4 5 4 2 4 6 8 9 10 10 10 10 12 12 13 13 12 11 11 12 12 10 10 10 10 10
1 6 5 4 3 3 5 9 9 11 11 11 8 6 5 4 4 5 6 4 3 2 4 5 7 8 8 8 10 11 12 13 13 12 11 12 10 11 11 11 10 9 10 8
6 5 5 2 11 6 13 12 13 12 11 10 8 7 5 3 5 5 4 3 2 3 5 6 6 6 7 8 9 11 12 12 12 12 10 9 8 10 10 10 11 7 7 10
Wind_Direction
292 270 255 316 183 72 131 156 172 163 181 264 105 156 146 168 193 179 180 184 194 205 196 195 201 209 219 226 221 221 222 230 217 214 220 221 228 229 233 235 239 242 241 244
239 243 162 230 185 234 211 213 186 127 328 230 117 122 139 166 191 187 195 193 199 202 210 207 209 214 217 224 226 224 225 221 217 221 225 233 232 237 240 238 239 234 237 238
258 59 184 194 186 227 207 252 181 61 132 170 197 142 150 172 188 200 211 215 213 218 217 209 211 217 219 224 225 224 225 222 220 228 224 229 236 245 242 234 237 232 231 232
251 213 231 225 240 238 169 175 223 181 217 122 236 121 174 161 182 203 216 215 221 224 223 229 212 211 219 224 223 224 223 224 223 218 229 224 233 237 237 239 242 238 232 237
107 240 222 233 256 224 43 204 186 186 189 198 168 250 137 162 187 178 181 192 206 214 222 220 216 223 221 217 220 214 212 215 217 211 223 225 229 244 245 250 249 241 248 236
258 266 261 233 228 226 148 139 164 187 229 191 92 278 153 173 189 173 170 174 182 198 230 234 231 230 223 222 225 220 209 221 222 220 219 231 245 242 255 252 250 250 246 238
189 223 211 231 224 169 203 219 173 195 198 82 107 249 102 119 96 302 303 325 5 328 260 222 215 240 229 235 221 231 223 235 234 232 236 239 248 256 260 261 263 269 264 260
201 197 191 176 232 236 201 249 302 201 208 116 155 198 107 83 66 85 115 95 85 57 57 57 66 66 71 61 71 213 272 255 270 261 262 263 261 263 268 266 270 277 280 274
140 243 149 193 196 241 160 224 339 295 182 261 127 119 142 116 85 102 102 97 88 83 81 83 81 81 80 78 70 71 72 60 42 23 340 303 286 275 282 288 287 279 278 277
336 264 226 112 199 216 272 119 204 223 198 266 133 228 102 156 112 114 106 101 97 96 94 88 83 78 75 75 77 74 71 63 54 46 31 16 345 331 319 307 301 299 294 291
250 230 226 200 206 196 174 217 241 325 294 308 220 143 90 127 136 127 116 111 107 101 95 90 87 85 83 81 78 74 68 59 48 33 19 4 354 347 341 333 321 309 301 295
222 243 182 242 123 294 253 255 214 228 173 240 311 84 85 124 137 131 119 116 110 106 102 96 95 94 88 82 75 71 64 53 38 19 4 357 342 327 312 311 311 310 303 304
220 235 236 195 191 191 218 193 243 264 267 183 284 105 119 127 134 132 130 123 120 115 108 102 96 87 80 73 63 51 43 41 29 9 360 355 343 329 319 316 313 309 306 304
299 266 279 287 167 121 193 189 215 227 209 151 240 121 154 146 146 142 132 126 120 113 106 100 94 87 79 64 53 37 32 21 9 352 339 341 340 326 313 310 305 302 299 298
244 199 262 304 299 218 190 173 187 228 319 273 41 340 151 157 153 148 134 129 123 110 100 97 90 84 60 45 31 20 7 353 344 336 334 335 330 323 317 310 305 299 297 294
184 230 252 141 33 196 180 173 202 216 222 245 294 105 132 148 137 148 145 141 128 117 109 105 88 61 42 34 4 352 346 333 330 330 331 331 326 322 317 316 316 313 306 299
172 215 227 185 6 323 211 168 180 127 195 314 228 93 147 161 166 160 153 147 136 123 122 107 52 15 13 0 354 342 341 344 338 337 332 332 328 323 321 318 314 312 312 312
192 189 346 171 356 245 39 201 272 42 9 150 110 135 159 162 159 151 145 144 139 119 115 97 355 343 342 352 359 349 346 344 337 335 338 333 329 323 323 322 321 319 313 314
202 166 90 15 315 249 248 198 179 192 150 175 126 141 147 141 143 154 142 139 137 132 109 8 359 351 0 12 358 350 340 340 340 341 334 331 329 325 324 323 325 323 326 319
166 145 149 188 233 226 235 143 143 191 178 161 155 157 156 165 199 155 161 159 156 151 63 347 0 7 18 8 356 345 347 341 346 337 334 334 335 329 325 333 332 320 324 322
179 198 217 212 241 128 123 159 166 214 94 156 160 160 160 184 42 115 151 157 147 90 69 45 20 19 15 5 352 350 344 352 340 340 337 332 329 330 323 322 322 322 323 317
190 200 214 230 227 215 154 150 249 91 139 147 152 160 160 119 129 138 147 143 153 136 81 25 12 9 8 8 355 345 353 344 342 337 334 332 334 332 331 326 324 330 317 312
207 359 21 346 41 89 138 59 116 138 139 144 145 153 146 142 145 145 146 156 143 118 54 9 3 359 2 10 357 349 350 343 335 335 342 338 338 338 336 339 335 331 341 354
154 206 58 217 102 103 128 123 134 137 135 139 134 139 145 138 139 148 151 150 151 72 20 10 1 0 7 358 356 357 354 346 338 340 335 338 350 338 349 337 339 344 354 356
24 179 137 103 134 148 163 153 142 133 130 122 120 123 127 136 147 153 148 147 111 57 24 12 10 16 0 352 10 3 358 351 345 347 352 345 351 350 344 343 347 345 354 354
189 164 222 267 159 217 160 162 155 144 135 131 128 125 128 153 148 155 138 113 76 43 20 20 14 13 358 12 12 9 3 358 352 346 4 341 351 358 349 347 341 4 355 335